Location: *
(51.1248°S, 108.4023°W)
Time: 20:37:10
(UTC+00:00)

Cosmos 1937 Rocket - Pass Details

Date: 25 October 2021
Orbit: 746 x 781 km, 74.0° (Epoch: 03 December)

Event Time Altitude Azimuth Distance (km) Brightness Sun altitude
Exits shadow 08:58:10 - 40° (NE) 3,024 6.4 -21.4°
Reaches altitude 10° 09:01:03 10° 62° (ENE) 2,354 6.1 -21.2°
Maximum altitude 09:03:24 13° 88° (E) 2,150 6.2 -21.0°
Drops below altitude 10° 09:05:45 10° 115° (ESE) 2,363 6.8 -20.8°
Sets 09:09:29 0° 141° (SE) 3,296 8.4 -20.5°
